Flag for U.S.A. Weather past 2 weeks in Bradenton, Florida, U.S.A.

Now
87 °F

Sunny.


Feels Like: 95 °F
Forecast: 76 / 90 °F
Wind: 6 mph from Southwest

Location: Sarasota-Bradenton International Airport

Current Time: Jul 7, 2015 at 11:51:45 AM

Latest Report: Jul 7, 2015 at 10:53 AM


Visibility: 10 mi

Pressure: 30.15 "Hg

Humidity: 63%

Dew point: 73 °F

Location of BradentonLocation

Historic Weather in Bradenton — Graph

°F

Bradenton temperature yesterday

Maximum temperature yesterday: 89 °F (at 1:53 PM)
Minimum temperature yesterday: 71 °F (at 5:53 AM)
Average temperature yesterday: 80 °F

Past Weeks' High & Low Weather Summary

 TemperatureHumidityPressure
High93 °F (Jun 22, 2:53 PM)97% (Jul 5, 11:53 PM)30.17 "Hg (Jul 5, 11:53 PM)
Low71 °F (Jul 6, 5:53 AM)50% (Jul 4, 12:53 PM)29.98 "Hg (Jun 28, 4:53 AM)
Average83 °F72%30.08 "Hg
* Reported Jun 22 10:53 AM — Jul 7 10:53 AM, Bradenton, Weather by CustomWeather, © 2015

Note: Actual official high and low records may vary slightly from our data, if they occured in-between our weather recording intervals... More about our weather records

Advertising

Bradenton weather history for previous 24 hours

 ConditionsComfort  
Time TempWeatherWind HumidityBarometerVisibility
10:53 AM
Tue, Jul 7
87 °FSunny.6 mph63%30.15 "Hg10 mi
9:53 AM84 °FSunny.3 mph70%30.16 "Hg10 mi
8:53 AM81 °FSunny.7 mph77%30.16 "Hg10 mi
7:53 AM75 °FSunny.7 mph90%30.14 "Hg10 mi
6:53 AM73 °FClear.6 mph94%30.13 "Hg10 mi
5:53 AM73 °FClear.3 mph94%30.11 "Hg10 mi
4:53 AM73 °FClear.3 mph90%30.10 "Hg10 mi
3:53 AM73 °FPassing clouds.No wind90%30.09 "Hg10 mi
2:53 AM74 °FClear.5 mph88%30.09 "Hg10 mi
1:53 AM74 °FClear.5 mph88%30.09 "Hg10 mi
12:53 AM75 °FClear.5 mph85%30.10 "Hg10 mi
11:53 PM
Mon, Jul 6
77 °FClear.6 mph79%30.11 "Hg10 mi
10:53 PM78 °FClear.7 mph79%30.11 "Hg10 mi
9:53 PM80 °FClear.7 mph81%30.12 "Hg10 mi
8:53 PM81 °FPassing clouds.5 mph85%30.12 "Hg10 mi
7:53 PM85 °FPartly sunny.8 mph75%30.12 "Hg10 mi
6:53 PM86 °FThundershowers. Sunny.3 mph67%30.11 "Hg10 mi
5:53 PM86 °FSunny.6 mph70%30.11 "Hg10 mi
4:53 PM87 °FScattered clouds.7 mph63%30.11 "Hg10 mi
3:53 PM86 °FBroken clouds.7 mph72%30.13 "Hg10 mi
2:53 PM87 °FThundershowers. Sunny.10 mph69%30.14 "Hg10 mi
1:53 PM89 °FThundershowers. Sunny.10 mph65%30.15 "Hg10 mi
12:53 PM88 °FThundershowers. Sunny.10 mph70%30.16 "Hg10 mi
11:53 AM87 °FPassing clouds.5 mph69%30.17 "Hg10 mi
Weather by CustomWeather, © 2015

See weather overviewHow to use our weather pages